User: anonymous   Login
Location: Holmes Observatory
(37.1039°N, 122.0513°W)
Time: 12:40:04
(UTC-07:00)
Language:

Cosmos 921 Rocket - Orbit

View from above orbital plane
View from above orbital plane
View from above satellite
View from above satellite

Ground track
Ground track

The orbit data is extracted from the following two-line orbital elements,

1 10096U 77055B   18109.17510689  .00000059  00000-0  83920-5 0  9997
2 10096  75.8349 176.1109 0042107 148.1859 212.1890 14.88615039207770
Epoch (UTC): 19 April 2018 04:12:09
Eccentricity: 0.0042107
inclination: 75.8349°
perigee height: 573 km
apogee height: 631 km
right ascension of ascending node: 176.1109°
argument of perigee: 148.1859°
revolutions per day: 14.88615039
mean anomaly at epoch: 212.1890°
orbit number at epoch: 20777

The dashed part of the orbit path shows where the satellite is in the earth's shadow,  

DLR